Weather in Aqaba

Jordan     29°32′18″N   35°00′15″E
temp.,
°C
wind,
m/s
gust,
m/s
humid.,
%
clouds,
%
prec.,
mm/h
press.,
hPa
HPBL,
m
11 may, tue
tue1100:00+26n44360 0.0 100857
03:00+25n44390 0.0 100845
06:00+23n55460 0.0 100972
09:00+25n44400 0.0 1010430
12:00+29nnw33310 0.0 1008607
15:00+33nw23250 0.0 10061172
18:00+33nw76230 0.0 10041713
21:00+27n79320 0.0 1007565
12 may, wed
wed1200:00+25n46310 0.0 1009235
03:00+23n45340 0.0 100888
06:00+22n44370 0.0 100961
09:00+25nnw44310 0.0 1009518
12:00+29nnw33270 0.0 1009772
15:00+32nnw33230 0.0 10061420
18:00+32nnw86200 0.0 10061718
21:00+28n69290 0.0 1008320
13 may, thu
thu1300:00+25n57420 0.0 1009264
03:00+23n34460 0.0 101091
06:00+21n34460 0.0 101172
09:00+25nnw44350 0.0 1012479
12:00+29nnw34230 0.0 1010833
15:00+32n45170 0.0 10091223
18:00+32nnw88110 0.0 10081395
21:00+27nnw68230 0.0 1011172
14 may, fri
fri1400:00+24n57310 0.0 1012144
03:00+22n45350 0.0 101267
06:00+21n45340 0.0 1013139
09:00+25n56220 0.0 1013491
12:00+30nnw66160 0.0 1012741
15:00+33n88110 0.0 1010891
18:00+32nne911130 0.0 1009883
21:00+27nne811250 0.0 1012291
15 may, sat
sat1500:00+24n46340 0.0 1013109
03:00+22n45370 0.0 101285
06:00+20n44390 0.0 101384
09:00+25nnw56290 0.0 1012501
12:00+30nnw66190 0.0 1010674
15:00+33n77130 0.0 1008793
18:00+32nne89120 0.0 1007879
21:00+27nnw69250 0.0 1009198